Location: Bergnershof
(48.9468°N, 10.9431°E)
Time: 09:31:56
(UTC+00:00)

Helios 1A Rocket - Pass Details

Date: 03 March 2021
Orbit: 563 x 585 km, 98.3° (Epoch: 12 April)

Event Time Altitude Azimuth Distance (km) Brightness Sun altitude
Rises 17:38:49 0° 146° (SE) 2,768 6.1 -6.7°
Reaches altitude 10° 17:41:02 10° 139° (SE) 1,872 5.2 -7.1°
Maximum altitude 17:44:51 41° 69° (ENE) 836 3.3 -7.7°
Drops below altitude 10° 17:48:40 10° 359° (N) 1,875 5.6 -8.3°
Sets 17:50:53 0° 352° (N) 2,775 6.5 -8.7°
